| time (UTC) | temp F | wind direction | speed MPH | gust MPH | rain 1hr in | rain 24hr in | rain mn in | humidity % | barometer mb |
| 20260905174534 | 66 | 246 | 11.0 | 45.0 | 0.05 | 0.05 | 0.05 | 56 | 1017.6 |
| 20260905173534 | 66 | 215 | 7.0 | 25.0 | 0.05 | 0.05 | 0.05 | 56 | 1017.3 |
| 20260905172534 | 66 | 205 | 9.0 | 31.0 | 0.05 | 0.05 | 0.05 | 55 | 1017.3 |
| 20260905171534 | 66 | 221 | 6.0 | 22.0 | 0.05 | 0.05 | 0.05 | 54 | 1017.3 |
| 20260905170534 | 66 | 257 | 12.0 | 54.0 | 0.05 | 0.05 | 0.05 | 53 | 1017.3 |
| 20260905165534 | 68 | 297 | 8.0 | 31.0 | 0.05 | 0.05 | 0.05 | 52 | 1017.3 |
| 20260905164535 | 66 | 210 | 14.0 | 56.0 | 0.05 | 0.05 | 0.05 | 53 | 1017.3 |
| 20260905163536 | 66 | 241 | 12.0 | 54.0 | 0.05 | 0.05 | 0.05 | 53 | 1017.3 |
| 20260905162534 | 68 | 253 | 4.0 | 13.0 | 0.05 | 0.05 | 0.05 | 52 | 1016.9 |
| 20260905161534 | 68 | 274 | 7.0 | 25.0 | 0.05 | 0.05 | 0.05 | 52 | 1016.6 |
| 20260905160534 | 68 | 262 | 16.0 | 60.0 | 0.05 | 0.05 | 0.05 | 51 | 1016.6 |
| 20260905155534 | 68 | 144 | 12.0 | 49.0 | 0.05 | 0.05 | 0.05 | 51 | 1016.6 |
| 20260905154534 | 68 | 247 | 6.0 | 22.0 | 0.05 | 0.05 | 0.05 | 50 | 1016.6 |
| 20260905153534 | 68 | 216 | 17.0 | 72.0 | 0.05 | 0.05 | 0.05 | 50 | 1016.6 |
| 20260905152534 | 68 | 258 | 20.0 | 85.0 | 0.05 | 0.05 | 0.05 | 49 | 1016.6 |
| 20260905151534 | 70 | 191 | 9.0 | 38.0 | 0.05 | 0.05 | 0.05 | 48 | 1016.6 |
| 20260905150534 | 70 | 249 | 11.0 | 43.0 | 0.05 | 0.05 | 0.05 | 48 | 1016.6 |
| 20260905145534 | 70 | 228 | 12.0 | 56.0 | 0.05 | 0.05 | 0.05 | 47 | 1016.6 |
| 20260905144534 | 70 | 262 | 9.0 | 34.0 | 0.05 | 0.05 | 0.05 | 47 | 1016.3 |
| 20260905143534 | 70 | 241 | 17.0 | 65.0 | 0.05 | 0.05 | 0.05 | 45 | 1016.6 |
| 20260905142534 | 70 | 308 | 15.0 | 60.0 | 0.05 | 0.05 | 0.05 | 46 | 1016.3 |
| 20260905141534 | 70 | 268 | 24.0 | 96.0 | 0.05 | 0.05 | 0.05 | 44 | 1016.3 |
| 20260905140535 | 70 | 211 | 24.0 | 96.0 | 0.05 | 0.05 | 0.05 | 47 | 1016.6 |
| 20260905135534 | 70 | 223 | 17.0 | 72.0 | 0.05 | 0.05 | 0.05 | 48 | 1016.3 |
| 20260905134534 | 70 | 194 | 14.0 | 58.0 | 0.05 | 0.05 | 0.05 | 48 | 1016.3 |
| 20260905133535 | 70 | 217 | 16.0 | 60.0 | 0.05 | 0.05 | 0.05 | 51 | 1016.3 |
| 20260905132536 | 70 | 258 | 6.0 | 22.0 | 0.05 | 0.05 | 0.05 | 50 | 1016.3 |
| 20260905131534 | 70 | 264 | 19.0 | 85.0 | 0.05 | 0.05 | 0.05 | 50 | 1016.3 |
| 20260905130534 | 70 | 264 | 21.0 | 83.0 | 0.05 | 0.05 | 0.05 | 51 | 1016.3 |
| 20260905125534 | 68 | 283 | 14.0 | 60.0 | 0.05 | 0.05 | 0.05 | 51 | 1016.6 |
| 20260905124534 | 68 | 312 | 6.0 | 22.0 | 0.05 | 0.05 | 0.05 | 53 | 1016.6 |
| 20260905123534 | 68 | 317 | 12.0 | 49.0 | 0.05 | 0.05 | 0.05 | 50 | 1016.6 |
| 20260905122534 | 68 | 242 | 17.0 | 72.0 | 0.05 | 0.05 | 0.05 | 50 | 1016.6 |
| 20260905121534 | 68 | 220 | 9.0 | 40.0 | 0.05 | 0.05 | 0.05 | 53 | 1016.6 |
| 20260905120534 | 68 | 221 | 16.0 | 58.0 | 0.05 | 0.05 | 0.05 | 52 | 1016.9 |
| 20260905115534 | 66 | 252 | 16.0 | 69.0 | 0.05 | 0.05 | 0.05 | 52 | 1016.9 |
| 20260905114534 | 68 | 252 | 12.0 | 49.0 | 0.05 | 0.05 | 0.05 | 51 | 1016.9 |
| 20260905113534 | 68 | 258 | 18.0 | 72.0 | 0.05 | 0.05 | 0.05 | 52 | 1016.9 |
| 20260905112534 | 68 | 12 | 16.0 | 69.0 | 0.05 | 0.05 | 0.05 | 52 | 1016.9 |
| 20260905111534 | 68 | 222 | 25.0 | 96.0 | 0.05 | 0.05 | 0.05 | 54 | 1016.9 |
| 20260905110534 | 66 | 198 | 11.0 | 40.0 | 0.05 | 0.05 | 0.05 | 55 | 1016.9 |
| 20260905105534 | 66 | 246 | 16.0 | 69.0 | 0.05 | 0.05 | 0.05 | 58 | 1016.9 |
| 20260905104534 | 66 | 239 | 8.0 | 31.0 | 0.05 | 0.05 | 0.05 | 56 | 1016.6 |
| 20260905103535 | 66 | 221 | 12.0 | 45.0 | 0.05 | 0.05 | 0.05 | 58 | 1016.6 |
| 20260905102534 | 66 | 227 | 14.0 | 56.0 | 0.05 | 0.05 | 0.05 | 60 | 1016.6 |
| 20260905101534 | 66 | 228 | 21.0 | 83.0 | 0.05 | 0.05 | 0.05 | 60 | 1016.6 |
| 20260905100534 | 66 | 251 | 4.0 | 16.0 | 0.05 | 0.05 | 0.05 | 62 | 1016.9 |
| 20260905095534 | 64 | 289 | 9.0 | 34.0 | 0.05 | 0.05 | 0.05 | 66 | 1016.6 |
| 20260905094534 | 64 | 228 | 15.0 | 56.0 | 0.05 | 0.05 | 0.05 | 61 | 1016.6 |
| 20260905093534 | 64 | 54 | 13.0 | 54.0 | 0.05 | 0.05 | 0.05 | 64 | 1016.6 |
| 20260905092534 | 66 | 256 | 7.0 | 29.0 | 0.05 | 0.05 | 0.05 | 65 | 1016.6 |
| 20260905091534 | 64 | 229 | 9.0 | 40.0 | 0.05 | 0.05 | 0.05 | 65 | 1016.6 |
| 20260905090534 | 64 | 202 | 16.0 | 58.0 | 0.05 | 0.05 | 0.05 | 66 | 1016.6 |
| 20260905085534 | 64 | 205 | 16.0 | 58.0 | 0.05 | 0.05 | 0.05 | 66 | 1016.6 |
| 20260905084534 | 64 | 236 | 9.0 | 34.0 | 0.05 | 0.05 | 0.05 | 69 | 1016.6 |
| 20260905083534 | 64 | 229 | 14.0 | 54.0 | 0.05 | 0.05 | 0.05 | 68 | 1016.6 |
| 20260905082534 | 63 | 235 | 12.0 | 47.0 | 0.05 | 0.05 | 0.05 | 69 | 1016.6 |
| 20260905081535 | 63 | 306 | 11.0 | 45.0 | 0.05 | 0.05 | 0.05 | 71 | 1016.6 |
| 20260905080534 | 64 | 360 | 9.0 | 34.0 | 0.05 | 0.05 | 0.05 | 71 | 1016.3 |
| 20260905075534 | 63 | 241 | 17.0 | 72.0 | 0.05 | 0.05 | 0.05 | 70 | 1016.3 |
| 20260905074534 | 63 | 215 | 12.0 | 47.0 | 0.05 | 0.05 | 0.05 | 71 | 1016.6 |
| 20260905073534 | 63 | 158 | 11.0 | 45.0 | 0.05 | 0.05 | 0.05 | 73 | 1016.3 |
| 20260905072534 | 63 | 305 | 16.0 | 74.0 | 0.05 | 0.05 | 0.05 | 72 | 1015.9 |
| 20260905070534 | 63 | 263 | 14.0 | 60.0 | 0.05 | 0.05 | 0.05 | 75 | 1015.9 |
| 20260905065534 | 63 | 253 | 9.0 | 31.0 | 0.05 | 0.05 | 0.05 | 76 | 1015.6 |
| 20260905064534 | 63 | 342 | 11.0 | 47.0 | 0.05 | 0.05 | 0.05 | 76 | 1015.6 |
| 20260905063534 | 61 | 240 | 15.0 | 56.0 | 0.05 | 0.05 | 0.05 | 78 | 1015.6 |
| 20260905062534 | 61 | 228 | 12.0 | 47.0 | 0.05 | 0.05 | 0.05 | 79 | 1015.6 |
| 20260905061534 | 63 | 253 | 11.0 | 45.0 | 0.05 | 0.05 | 0.05 | 79 | 1015.6 |
| 20260905060534 | 63 | 256 | 8.0 | 31.0 | 0.05 | 0.05 | 0.05 | 78 | 1015.6 |
| 20260905055534 | 61 | 234 | 12.0 | 47.0 | 0.05 | 0.05 | 0.05 | 79 | 1015.6 |
| 20260905054534 | 61 | 245 | 6.0 | 20.0 | 0.05 | 0.05 | 0.05 | 80 | 1015.2 |
| 20260905053534 | 61 | 216 | 11.0 | 45.0 | 0.05 | 0.05 | 0.05 | 80 | 1015.2 |
| 20260905052534 | 61 | 218 | 8.0 | 31.0 | 0.05 | 0.05 | 0.05 | 82 | 1014.9 |
| 20260905051534 | 61 | 222 | 16.0 | 56.0 | 0.05 | 0.05 | 0.05 | 83 | 1014.9 |
| 20260905050534 | 61 | 210 | 11.0 | 45.0 | 0.05 | 0.05 | 0.05 | 83 | 1014.9 |
| 20260905045534 | 61 | 232 | 8.0 | 31.0 | 0.05 | 0.05 | 0.05 | 83 | 1014.9 |
| 20260905044534 | 61 | 221 | 8.0 | 31.0 | 0.05 | 0.05 | 0.05 | 83 | 1014.6 |
| 20260905043534 | 61 | 207 | 8.0 | 31.0 | 0.05 | 0.05 | 0.05 | 85 | 1014.6 |
| 20260905042534 | 59 | 252 | 4.0 | 16.0 | 0.05 | 0.05 | 0.05 | 86 | 1014.2 |
| 20260905041534 | 61 | 229 | 6.0 | 20.0 | 0.05 | 0.05 | 0.05 | 84 | 1013.9 |
| 20260905040534 | 61 | 207 | 6.0 | 20.0 | 0.05 | 0.05 | 0.05 | 84 | 1014.2 |
| 20260905035534 | 61 | 247 | 4.0 | 16.0 | 0.05 | 0.05 | 0.05 | 83 | 1013.9 |
| 20260905034534 | 61 | 344 | 2.0 | 7.0 | 0.05 | 0.05 | 0.05 | 83 | 1013.9 |
| 20260905033534 | 61 | 236 | 6.0 | 25.0 | 0.05 | 0.05 | 0.05 | 82 | 1013.9 |
| 20260905032534 | 61 | 283 | 5.0 | 20.0 | 0.05 | 0.05 | 0.05 | 83 | 1013.9 |
| 20260905031534 | 61 | 262 | 9.0 | 38.0 | 0.05 | 0.05 | 0.05 | 82 | 1013.9 |
| 20260905030534 | 61 | 211 | 8.0 | 29.0 | 0.05 | 0.05 | 0.05 | 82 | 1013.6 |
| 20260905025534 | 61 | 259 | 11.0 | 43.0 | 0.05 | 0.05 | 0.05 | 83 | 1013.2 |
| 20260905024534 | 61 | 270 | 6.0 | 25.0 | 0.05 | 0.05 | 0.05 | 83 | 1013.2 |
| 20260905023534 | 61 | 253 | 11.0 | 45.0 | 0.05 | 0.05 | 0.05 | 82 | 1012.9 |
| 20260905022534 | 61 | 227 | 6.0 | 20.0 | 0.05 | 0.05 | 0.05 | 83 | 1013.2 |
| 20260905021534 | 61 | 229 | 11.0 | 43.0 | 0.05 | 0.05 | 0.05 | 83 | 1012.5 |
| 20260905020534 | 61 | 222 | 8.0 | 29.0 | 0.05 | 0.05 | 0.05 | 83 | 1012.5 |
| 20260905015534 | 61 | 253 | 6.0 | 22.0 | 0.05 | 0.05 | 0.05 | 83 | 1012.5 |
| 20260905014534 | 61 | 247 | 9.0 | 45.0 | 0.05 | 0.05 | 0.05 | 83 | 1012.2 |
| 20260905013534 | 61 | 239 | 11.0 | 43.0 | 0.05 | 0.05 | 0.05 | 83 | 1012.2 |
| 20260905012534 | 61 | 239 | 8.0 | 29.0 | 0.05 | 0.05 | 0.05 | 84 | 1012.5 |
| 20260905011534 | 61 | 235 | 11.0 | 47.0 | 0.05 | 0.05 | 0.05 | 85 | 1012.5 |
| 20260905010534 | 61 | 249 | 15.0 | 60.0 | 0.05 | 0.05 | 0.05 | 87 | 1012.5 |
| 20260905005534 | 61 | 336 | 7.0 | 29.0 | 0.05 | 0.05 | 0.05 | 87 | 1011.9 |
| 20260905004534 | 61 | 229 | 9.0 | 45.0 | 0.05 | 0.05 | 0.05 | 87 | 1012.2 |
| 20260905003534 | 61 | 251 | 4.0 | 18.0 | 0.05 | 0.05 | 0.05 | 88 | 1012.5 |
| 20260905002534 | 61 | 227 | 13.0 | 54.0 | 0.05 | 0.05 | 0.05 | 87 | 1012.5 |
| 20260905001534 | 61 | 206 | 9.0 | 31.0 | 0.05 | 0.05 | 0.05 | 86 | 1012.5 |
| 20260905000534 | 63 | 262 | 12.0 | 45.0 | 0.05 | 0.05 | 0.05 | 87 | 1012.2 |
| 20260904235534 | 63 | 246 | 17.0 | 81.0 | 0.05 | 0.05 | 0.05 | 87 | 1012.2 |
| 20260904234534 | 63 | 255 | 9.0 | 34.0 | 0.05 | 0.05 | 0.05 | 87 | 1012.2 |
| 20260904233534 | 61 | 228 | 6.0 | 22.0 | 0.05 | 0.05 | 0.05 | 89 | 1011.9 |
| 20260904232534 | 61 | 262 | 7.0 | 29.0 | 0.05 | 0.05 | 0.05 | 90 | 1011.2 |
| 20260904231534 | 61 | 238 | 9.0 | 40.0 | 0.05 | 0.05 | 0.05 | 89 | 1012.2 |
| 20260904230534 | 61 | 228 | 9.0 | 31.0 | 0.05 | 0.05 | 0.05 | 86 | 1011.5 |
| 20260904225534 | 61 | 317 | 9.0 | 38.0 | 0.05 | 0.05 | 0.05 | 87 | 1011.5 |
| 20260904224534 | 61 | 251 | 9.0 | 45.0 | 0.05 | 0.05 | 0.05 | 90 | 1011.9 |
| 20260904223534 | 61 | 242 | 19.0 | 76.0 | 0.03 | 0.03 | 0.03 | 91 | 1011.9 |
| 20260904222534 | 61 | 228 | 6.0 | 22.0 | 0.02 | 0.02 | 0.02 | 91 | 1011.2 |
| 20260904221534 | 61 | 240 | 7.0 | 29.0 | 0.00 | 0.00 | 0.00 | 90 | 1011.2 |
| 20260904220535 | 61 | 235 | 11.0 | 40.0 | 0.00 | 0.00 | 0.00 | 90 | 1011.9 |
| 20260904215535 | 61 | 239 | 11.0 | 45.0 | 0.28 | 0.28 | 0.28 | 90 | 1011.5 |
| 20260904214534 | 63 | 218 | 11.0 | 45.0 | 0.25 | 0.25 | 0.25 | 88 | 1011.2 |
| 20260904213534 | 63 | 228 | 9.0 | 31.0 | 0.24 | 0.24 | 0.24 | 87 | 1011.2 |
| 20260904212534 | 63 | 223 | 8.0 | 29.0 | 0.22 | 0.22 | 0.22 | 87 | 1010.8 |
| 20260904211533 | 63 | 210 | 9.0 | 31.0 | 0.22 | 0.22 | 0.22 | 88 | 1011.5 |
| 20260904210534 | 63 | 222 | 7.0 | 29.0 | 0.19 | 0.19 | 0.19 | 87 | 1011.5 |
| 20260904205534 | 63 | 264 | 6.0 | 25.0 | 0.17 | 0.17 | 0.17 | 87 | 1011.2 |
| 20260904204534 | 63 | 270 | 9.0 | 34.0 | 0.16 | 0.16 | 0.16 | 83 | 1011.2 |
| 20260904203534 | 63 | 207 | 9.0 | 31.0 | 0.16 | 0.16 | 0.16 | 83 | 1011.5 |
| 20260904202534 | 64 | 300 | 11.0 | 43.0 | 0.16 | 0.16 | 0.16 | 83 | 1011.9 |
| 20260904201534 | 64 | 227 | 6.0 | 22.0 | 0.14 | 0.14 | 0.14 | 80 | 1011.5 |
| 20260904200534 | 64 | 256 | 4.0 | 16.0 | 0.14 | 0.14 | 0.14 | 79 | 1011.5 |
| 20260904195534 | 66 | 273 | 7.0 | 25.0 | 0.14 | 0.14 | 0.14 | 77 | 1011.2 |
| 20260904194534 | 66 | 275 | 5.0 | 20.0 | 0.14 | 0.14 | 0.14 | 78 | 1011.2 |
| 20260904193534 | 66 | 228 | 6.0 | 20.0 | 0.14 | 0.14 | 0.14 | 80 | 1011.2 |
| 20260904192534 | 66 | 249 | 15.0 | 63.0 | 0.14 | 0.14 | 0.14 | 80 | 1011.5 |
| 20260904191534 | 66 | 291 | 6.0 | 25.0 | 0.14 | 0.14 | 0.14 | 81 | 1010.5 |
| 20260904190534 | 66 | 325 | 6.0 | 25.0 | 0.14 | 0.14 | 0.14 | 83 | 1010.5 |
| 20260904185534 | 68 | 12 | 4.0 | 16.0 | 0.14 | 0.14 | 0.14 | 81 | 1009.8 |
| 20260904184534 | 68 | 241 | 14.0 | 56.0 | 0.14 | 0.14 | 0.14 | 80 | 1009.8 |
| 20260904183534 | 68 | 264 | 7.0 | 25.0 | 0.14 | 0.14 | 0.14 | 85 | 1009.5 |
| 20260904182534 | 68 | 252 | 7.0 | 25.0 | 0.14 | 0.14 | 0.14 | 85 | 1009.5 |
| 20260904181534 | 68 | 301 | 17.0 | 69.0 | 0.14 | 0.14 | 0.14 | 90 | 1008.8 |
| 20260904180534 | 79 | 240 | 12.0 | 54.0 | 0.00 | 0.00 | 0.00 | 57 | 1007.1 |
| 20260904175534 | 77 | 275 | 6.0 | 25.0 | 0.00 | 0.00 | 0.00 | 58 | 1006.8 |